Home > Weather > St. Augustine > Past weeks

Flag for USA Past Weather in St. Augustine, Florida, USA — Yesterday and Last 2 Weeks

Now
85 °F

Sunny.


Feels Like: 92 °F
Forecast: 75 / 90 °F
Wind: No wind

Location: St. Augustine Airport

Current Time: Jul 24, 2016 at 10:43:48 AM

Latest Report: Jul 24, 2016 at 9:58 AM


Visibility: 10 mi

Pressure: 30.07 "Hg

Humidity: 70%

Dew Point: 74 °F

Location of St. AugustineLocation

Past Weather in St. Augustine — Graph

°F

St. Augustine Temperature Yesterday

Maximum temperature yesterday: 90 °F (at 4:58 PM)
Minimum temperature yesterday: 75 °F (at 4:58 AM)
Average temperature yesterday: 83 °F

High & Low Weather Summary for the Past Weeks

 TemperatureHumidityPressure
High97 °F (Jul 9, 3:50 PM)94% (Jul 13, 5:58 AM)30.27 "Hg (Jul 13, 5:58 AM)
Low73 °F (Jul 13, 5:58 AM)42% (Jul 9, 3:50 PM)29.99 "Hg (Jul 23, 6:58 PM)
Average84 °F73%30.12 "Hg
* Reported Jul 9 10:50 AM — Jul 24 8:58 AM, St. Augustine, Weather by CustomWeather, © 2016

Note: Actual official high and low records may vary slightly from our data, if they occured in-between our weather recording intervals... More about our weather records

Advertising

St. Augustine Weather History for the Previous 24 Hours

Scroll right to see more
 ConditionsComfort  
Time TempWeatherWind HumidityBarometerVisibility
8:58 AM
Sun, Jul 24
82 °FSunny.5 mph77%30.07 "Hg10 mi
7:58 AM78 °FSunny.3 mph84%30.05 "Hg10 mi
6:58 AM75 °FClear.3 mph88%30.04 "Hg10 mi
5:58 AM75 °FClear.No wind88%30.03 "Hg10 mi
4:58 AM75 °FClear.No wind88%30.02 "Hg10 mi
3:58 AM76 °FClear.No wind88%30.02 "Hg10 mi
2:58 AM77 °FClear.3 mph85%30.03 "Hg10 mi
1:58 AM78 °FClear.5 mph84%30.04 "Hg10 mi
12:58 AM80 °FClear.5 mph79%30.05 "Hg10 mi
11:58 PM
Sat, Jul 23
82 °FClear.7 mph74%30.05 "Hg10 mi
10:58 PM83 °FClear.9 mph72%30.04 "Hg10 mi
9:58 PM83 °FClear.9 mph72%30.02 "Hg10 mi
8:58 PM83 °FSunny.8 mph70%30.00 "Hg10 mi
7:58 PM85 °FSunny.12 mph65%29.99 "Hg10 mi
6:58 PM88 °FSunny.13 mph61%29.99 "Hg10 mi
5:58 PM89 °FSunny.13 mph59%30.00 "Hg10 mi
4:58 PM90 °FSunny.14 mph61%30.01 "Hg10 mi
3:58 PM88 °FSunny.12 mph65%30.01 "Hg10 mi
2:58 PM89 °FSunny.10 mph61%30.02 "Hg10 mi
1:58 PM89 °FScattered clouds.12 mph61%30.04 "Hg10 mi
12:58 PM89 °FSunny.10 mph61%30.06 "Hg10 mi
11:58 AM89 °FSunny.12 mph61%30.06 "Hg10 mi
10:58 AM88 °FSunny.7 mph63%30.06 "Hg10 mi
Weather by CustomWeather, © 2016

See weather overviewHow to use our weather pages